Temp
65 59 55 61 64 67 66 61 60 63 60 60 61 62 68 74 72 70 73 75 77 78 83 83 82 81 80 80 80 80 79 78 77 69 67 66 64 65 66 71 74 74 73 70
57 54 64 67 66 61 61 59 59 58 59 57 61 58 65 69 70 71 74 76 78 79 82 81 80 78 78 78 78 79 79 79 77 72 69 69 69 66 68 69 68 73 73 72
57 60 67 61 59 57 59 58 59 58 57 58 57 57 61 68 70 73 74 76 78 79 78 80 76 76 76 74 75 76 77 79 79 73 70 67 66 64 63 65 65 67 70 70
60 60 59 57 57 60 53 62 62 56 55 52 58 51 63 66 66 66 68 70 74 76 74 74 73 73 74 73 73 73 75 76 77 77 69 66 64 63 64 64 65 64 66 66
56 54 54 54 58 62 58 61 59 58 55 54 55 51 60 62 62 66 69 71 73 73 71 70 67 65 66 66 65 67 70 72 73 73 73 67 65 67 70 65 62 63 64 65
59 57 61 61 58 61 59 57 56 56 56 43 54 52 56 63 63 70 71 69 66 65 65 63 62 61 63 63 62 63 65 68 69 72 73 70 66 66 64 63 62 62 61 61
51 52 56 58 53 57 59 54 44 41 41 41 49 49 57 67 68 66 66 66 66 65 64 63 62 62 61 60 60 62 63 64 69 69 71 71 69 68 65 65 64 61 57 56
46 42 51 56 58 52 53 56 46 33 37 44 44 42 55 67 69 64 66 64 64 64 63 62 60 60 60 59 58 62 64 64 66 67 68 71 67 65 64 62 62 59 59 58
49 48 57 56 57 60 52 49 61 43 32 40 48 53 61 62 62 63 63 61 61 63 63 62 61 60 60 59 58 58 60 61 64 66 67 67 63 59 58 58 58 57 56 52
56 45 51 51 55 57 56 61 45 48 33 34 47 49 53 55 61 64 62 61 63 61 60 60 59 59 58 59 59 59 58 57 58 59 60 58 57 58 57 55 53 53 51 50
58 53 42 48 48 51 50 51 53 54 50 39 39 49 65 65 65 65 64 62 63 60 60 59 58 57 57 57 58 58 57 55 53 52 53 52 51 51 52 52 51 51 50 52
58 52 39 45 54 55 57 54 54 45 41 47 44 48 60 61 64 65 65 60 60 60 59 59 57 56 56 56 57 57 57 56 55 53 52 50 50 51 51 52 54 53 55 54
55 42 33 36 46 51 46 52 56 55 48 38 37 46 59 57 58 58 62 59 56 57 56 55 55 55 55 55 55 55 55 55 55 57 56 55 55 56 56 56 55 53 52 52
54 40 41 38 44 51 42 47 52 51 39 42 44 50 57 55 58 59 58 57 57 56 55 56 55 54 55 54 55 56 55 56 56 56 56 56 55 55 55 53 52 50 50 49
53 36 43 48 49 47 45 43 47 43 47 42 49 51 57 63 61 63 62 59 57 56 54 55 54 54 53 52 53 54 54 53 55 54 53 51 51 51 50 47 47 45 44 44
52 34 43 36 47 46 35 47 48 48 49 50 51 51 64 66 68 63 61 59 57 55 56 56 54 52 52 52 53 52 52 52 53 51 47 46 45 42 42 41 40 40 40 41
39 34 34 34 41 36 32 40 47 47 50 52 45 54 61 60 57 59 59 58 56 57 56 54 52 51 51 52 52 52 51 50 47 43 41 41 41 40 39 39 39 38 38 37
34 34 35 32 33 25 42 54 54 50 52 54 55 57 58 58 58 58 60 59 56 57 55 53 53 52 50 49 50 48 47 43 40 39 38 38 38 37 37 36 35 35 36 35
49 39 33 31 31 38 44 42 46 46 46 54 54 57 57 58 51 53 55 57 58 55 52 52 51 49 48 48 46 41 40 39 38 37 36 35 33 32 33 32 33 33 33 33
39 42 36 32 30 28 40 47 50 50 36 49 54 54 55 50 44 52 53 49 51 51 50 47 45 45 44 42 41 39 38 37 36 35 34 33 32 31 31 32 31 32 33 32
32 33 31 32 31 35 43 43 50 34 39 44 48 50 48 46 51 48 48 47 46 45 43 44 43 42 40 39 39 37 36 34 34 34 32 30 31 30 31 31 32 31 31 31
33 31 31 32 31 30 43 42 42 45 42 44 45 48 48 49 45 45 45 44 43 41 42 40 37 35 35 37 37 35 32 32 32 32 30 29 29 31 31 30 31 30 31 31
32 40 34 37 39 41 45 43 45 46 46 44 45 44 46 42 43 45 43 42 42 41 37 37 35 32 32 32 34 31 29 29 28 27 26 27 27 29 29 30 30 32 32 32
36 38 38 38 40 42 43 43 43 44 44 44 44 44 44 43 42 39 39 38 36 36 34 33 31 29 27 27 27 26 25 24 24 26 26 27 27 27 29 31 31 31 32 32
38 38 34 35 37 39 42 44 45 41 40 39 39 39 41 41 37 37 36 35 35 33 32 32 30 28 25 25 22 20 19 19 24 24 24 26 27 26 27 29 29 29 30 31
35 37 37 39 43 44 43 45 44 41 40 41 39 37 37 39 37 37 35 34 32 29 28 27 26 25 23 22 18 14 13 16 19 25 25 23 24 26 26 27 28 33 32 32
MSLP
1012.84 1012.62 1011.96 1011.82 1011.51 1010.99 1010.79 1011.41 1011.66 1012.71 1013.88 1013.68 1012.67 1012.04 1011.49 1011.13 1011.30 1011.38 1010.98 1010.85 1010.87 1010.84 1011.22 1011.60 1012.24 1012.88 1013.44 1014.11 1014.49 1015.00 1015.51 1016.36 1017.10 1018.01 1018.62 1019.05 1019.56 1020.28 1020.56 1020.35 1020.51 1020.89 1021.44 1022.02
1012.93 1012.15 1011.63 1011.56 1011.67 1011.99 1011.74 1011.84 1012.18 1013.50 1013.91 1013.77 1012.71 1012.01 1011.55 1011.02 1010.79 1010.88 1010.53 1010.15 1010.12 1010.45 1010.67 1011.25 1012.13 1012.80 1013.23 1013.55 1014.04 1014.55 1014.89 1015.46 1016.29 1017.13 1017.89 1018.37 1018.76 1019.43 1019.81 1020.06 1020.43 1020.47 1020.83 1021.29
1011.38 1011.58 1011.54 1011.98 1012.16 1012.19 1012.03 1012.07 1012.07 1012.98 1013.65 1013.71 1013.28 1011.51 1010.65 1010.13 1010.10 1010.00 1010.11 1009.97 1009.81 1009.95 1010.34 1010.91 1011.94 1012.60 1013.17 1013.51 1013.80 1014.11 1014.43 1014.81 1015.32 1016.40 1017.52 1018.09 1018.43 1018.87 1019.44 1019.53 1019.96 1020.20 1020.42 1020.72
1011.73 1012.05 1012.07 1012.32 1012.19 1012.30 1012.28 1012.69 1012.61 1013.22 1013.40 1013.08 1013.15 1010.63 1009.23 1009.26 1009.43 1009.51 1009.59 1009.74 1009.92 1010.32 1010.94 1011.43 1012.11 1012.71 1013.14 1013.39 1013.89 1014.21 1014.39 1014.63 1014.85 1015.35 1016.59 1017.11 1017.43 1017.83 1018.17 1018.69 1019.26 1019.67 1020.05 1020.40
1011.55 1012.19 1012.39 1012.21 1012.06 1012.53 1012.66 1012.82 1013.29 1013.57 1013.68 1013.32 1012.91 1012.05 1009.16 1008.95 1008.67 1008.51 1008.68 1009.24 1009.86 1010.79 1011.51 1012.05 1012.84 1013.50 1013.86 1014.02 1014.34 1014.63 1014.61 1014.55 1014.58 1014.87 1015.41 1016.25 1016.79 1017.10 1017.58 1018.25 1018.79 1019.24 1019.55 1019.90
1011.77 1012.69 1012.28 1012.18 1012.78 1012.96 1013.64 1013.72 1014.11 1014.08 1013.74 1013.20 1012.31 1011.80 1008.48 1007.91 1008.10 1007.99 1008.61 1009.40 1010.49 1011.46 1012.27 1012.95 1013.49 1014.05 1014.36 1014.35 1014.67 1014.83 1014.69 1014.60 1014.67 1014.76 1014.90 1015.31 1016.09 1016.60 1017.12 1017.54 1018.16 1018.66 1019.23 1019.70
1012.48 1012.85 1013.15 1012.91 1013.28 1013.83 1013.35 1013.51 1013.66 1013.87 1013.71 1012.79 1012.57 1011.74 1008.34 1007.68 1008.15 1008.70 1009.26 1010.08 1010.75 1011.66 1012.32 1012.95 1013.59 1014.07 1014.44 1014.51 1014.84 1014.81 1014.62 1014.61 1014.58 1014.79 1014.85 1015.03 1015.57 1016.10 1016.72 1017.13 1017.65 1018.33 1018.99 1019.55
1011.01 1012.13 1012.45 1012.66 1012.02 1012.39 1012.64 1012.24 1011.85 1012.69 1013.22 1012.90 1013.18 1010.72 1008.28 1008.09 1008.20 1009.15 1009.81 1010.71 1011.29 1011.52 1012.30 1012.90 1013.72 1014.11 1014.61 1015.00 1015.27 1014.88 1014.66 1014.66 1014.57 1014.64 1014.80 1014.93 1015.55 1016.06 1016.41 1016.96 1017.55 1018.25 1018.69 1019.13
1009.58 1010.67 1011.79 1012.38 1012.39 1011.90 1012.67 1011.86 1011.51 1012.65 1014.06 1013.25 1011.42 1009.66 1008.52 1008.16 1008.47 1008.97 1009.73 1010.70 1011.33 1011.83 1012.44 1013.00 1013.75 1014.32 1014.89 1015.06 1015.36 1015.42 1015.32 1015.29 1015.10 1015.00 1015.10 1015.23 1015.77 1016.35 1016.71 1017.15 1017.60 1018.17 1018.74 1019.27
1008.92 1010.50 1012.15 1012.88 1012.82 1012.08 1011.64 1011.70 1012.32 1012.20 1012.47 1011.99 1009.75 1008.74 1007.20 1007.85 1007.94 1008.42 1009.44 1010.31 1011.17 1011.97 1012.75 1013.46 1013.99 1014.47 1015.02 1015.28 1015.40 1015.64 1015.84 1015.92 1016.02 1016.03 1016.09 1016.35 1016.62 1016.80 1017.08 1017.48 1017.98 1018.42 1018.99 1019.46
1009.06 1009.90 1012.86 1013.11 1011.76 1010.85 1012.26 1011.33 1011.07 1011.17 1010.94 1010.11 1009.36 1007.71 1007.06 1006.72 1007.15 1007.87 1008.98 1010.12 1011.05 1012.20 1013.01 1013.72 1014.30 1014.87 1015.25 1015.48 1015.63 1015.89 1016.11 1016.35 1016.62 1016.79 1016.92 1017.02 1017.42 1017.62 1017.75 1017.94 1018.39 1018.80 1019.13 1019.34
1008.70 1009.92 1011.51 1011.63 1011.72 1011.67 1011.04 1010.31 1010.15 1010.02 1009.98 1010.12 1009.69 1007.77 1007.50 1007.86 1007.91 1008.29 1009.06 1010.29 1011.19 1012.23 1013.09 1013.85 1014.47 1014.95 1015.31 1015.52 1015.83 1016.04 1016.26 1016.46 1016.75 1017.07 1017.37 1017.53 1017.71 1018.08 1018.17 1018.30 1018.68 1018.90 1019.21 1019.48
1008.90 1010.13 1011.36 1012.11 1012.36 1011.79 1011.05 1010.30 1010.12 1010.20 1010.41 1010.05 1009.62 1007.95 1007.74 1008.49 1008.65 1009.05 1009.46 1010.56 1011.50 1012.56 1013.27 1014.11 1014.69 1014.89 1015.33 1015.67 1016.00 1016.25 1016.49 1016.75 1017.02 1017.19 1017.45 1017.76 1017.95 1017.98 1018.36 1018.75 1019.21 1019.40 1019.61 1019.97
1008.78 1009.59 1009.67 1009.26 1008.58 1010.07 1011.06 1010.63 1010.60 1010.48 1010.62 1009.28 1009.14 1007.90 1007.74 1008.51 1008.68 1009.12 1009.94 1010.79 1011.63 1012.59 1013.36 1014.01 1014.47 1014.87 1015.44 1015.99 1016.19 1016.42 1016.80 1016.95 1017.13 1017.40 1017.84 1018.24 1018.42 1018.41 1018.79 1019.26 1019.63 1019.81 1020.17 1020.45
1009.24 1009.73 1010.23 1009.60 1009.82 1009.83 1009.75 1009.96 1010.16 1010.29 1009.33 1008.97 1007.80 1007.59 1006.01 1007.27 1008.13 1008.60 1009.54 1010.75 1011.50 1012.27 1013.09 1013.63 1014.31 1014.87 1015.61 1016.06 1016.30 1016.69 1017.15 1017.41 1017.52 1017.84 1018.53 1018.85 1019.11 1019.20 1019.45 1019.87 1020.07 1020.32 1020.63 1020.99
1009.65 1010.48 1010.84 1010.65 1010.53 1010.73 1010.89 1010.04 1009.37 1009.03 1008.51 1008.47 1007.40 1006.91 1005.99 1006.93 1007.41 1008.25 1009.14 1010.37 1011.04 1011.85 1012.59 1013.35 1014.20 1015.06 1015.69 1016.10 1016.33 1016.81 1017.31 1017.79 1017.84 1018.50 1019.31 1019.57 1019.73 1019.93 1020.14 1020.24 1020.41 1020.71 1020.83 1021.21
1009.85 1010.82 1011.49 1010.87 1011.27 1011.56 1011.12 1007.16 1008.77 1008.39 1007.98 1007.50 1007.24 1003.91 1007.18 1006.91 1007.78 1008.44 1009.04 1009.78 1010.58 1011.32 1012.37 1013.25 1014.20 1015.02 1015.54 1016.15 1016.59 1016.95 1017.56 1018.29 1018.64 1019.40 1020.13 1020.28 1020.34 1020.56 1020.73 1020.72 1020.75 1021.02 1021.24 1021.45
1009.96 1010.94 1011.58 1011.86 1012.07 1011.14 1006.49 1007.73 1007.47 1007.48 1007.10 1007.14 1006.24 1005.57 1006.51 1006.97 1007.60 1008.32 1008.60 1009.37 1010.23 1011.05 1012.04 1013.27 1014.22 1015.14 1015.83 1016.75 1017.18 1017.67 1018.27 1019.13 1019.47 1020.27 1020.65 1020.91 1021.04 1021.27 1021.38 1021.35 1021.50 1021.69 1021.92 1022.16
1009.55 1010.27 1011.53 1011.60 1011.11 1008.85 1007.08 1007.54 1007.26 1007.24 1005.46 1006.09 1005.40 1005.82 1006.79 1007.70 1008.58 1008.30 1009.09 1009.43 1009.87 1011.08 1012.56 1013.76 1014.60 1015.35 1016.39 1017.23 1017.79 1018.45 1019.29 1019.83 1020.10 1020.84 1021.30 1021.63 1021.82 1021.97 1021.90 1022.04 1022.32 1022.46 1022.60 1022.55
1010.18 1009.92 1010.72 1010.94 1010.18 1008.46 1006.15 1006.15 1006.70 1007.30 1005.80 1006.16 1005.71 1005.87 1006.43 1007.89 1008.75 1008.00 1008.82 1009.82 1010.71 1011.60 1012.74 1013.95 1015.12 1016.01 1016.92 1017.80 1018.37 1019.15 1019.91 1020.34 1021.11 1021.75 1022.12 1022.32 1022.34 1022.42 1022.54 1022.74 1022.66 1022.73 1022.65 1022.54
1009.76 1009.99 1009.49 1009.81 1009.28 1007.57 1006.80 1007.26 1007.29 1008.14 1006.91 1006.11 1006.00 1006.19 1006.89 1007.64 1007.75 1009.26 1009.89 1010.91 1011.73 1012.61 1013.60 1014.77 1015.75 1016.55 1017.41 1018.12 1018.78 1019.71 1020.46 1021.23 1021.82 1022.27 1022.55 1022.67 1022.75 1022.81 1022.86 1022.83 1022.71 1022.58 1022.41 1022.24
1008.44 1008.90 1008.86 1009.14 1008.55 1007.57 1007.17 1007.93 1007.62 1007.30 1007.15 1007.28 1007.35 1007.40 1007.69 1008.48 1009.39 1010.21 1011.04 1011.87 1012.65 1013.31 1014.26 1015.25 1016.20 1017.33 1018.26 1018.85 1019.40 1020.25 1021.10 1021.95 1022.38 1022.76 1022.95 1023.16 1023.14 1022.95 1022.85 1022.73 1022.50 1022.43 1022.34 1022.37
1008.29 1007.71 1007.72 1007.63 1006.85 1006.59 1006.78 1007.13 1007.35 1007.75 1007.68 1008.30 1008.69 1008.80 1009.04 1009.64 1010.38 1011.15 1012.05 1012.81 1013.47 1014.34 1015.48 1016.43 1017.30 1018.42 1019.43 1019.86 1020.25 1021.03 1022.11 1022.66 1022.84 1022.97 1023.09 1023.25 1023.20 1023.04 1022.85 1022.67 1022.45 1022.36 1022.31 1022.35
1007.91 1007.99 1007.70 1007.61 1006.99 1006.95 1007.31 1007.86 1007.98 1008.53 1008.81 1009.14 1009.52 1009.88 1010.13 1010.41 1011.11 1011.85 1012.69 1013.53 1014.42 1015.43 1016.31 1017.24 1018.19 1019.24 1020.21 1020.89 1021.50 1022.10 1022.69 1023.09 1023.17 1023.12 1023.10 1023.12 1023.08 1023.07 1023.00 1022.88 1022.70 1022.66 1022.67 1022.52
1007.90 1007.80 1007.56 1007.63 1007.89 1007.82 1007.94 1007.82 1008.50 1009.05 1009.48 1009.91 1010.20 1010.66 1010.86 1011.20 1011.98 1012.63 1013.54 1014.40 1015.28 1016.26 1017.26 1018.03 1018.90 1019.97 1020.99 1021.74 1022.51 1023.25 1023.43 1023.35 1023.37 1023.32 1023.29 1023.18 1023.16 1023.24 1023.26 1023.12 1022.97 1022.78 1022.76 1022.72
1008.00 1007.36 1007.36 1007.03 1007.04 1007.12 1007.59 1008.00 1008.64 1009.08 1009.67 1010.12 1010.73 1011.28 1011.44 1011.62 1012.25 1013.06 1014.10 1015.01 1015.94 1016.94 1017.88 1018.75 1019.59 1020.47 1021.43 1022.33 1023.31 1023.87 1024.10 1023.93 1023.67 1023.64 1023.71 1023.63 1023.60 1023.51 1023.51 1023.33 1022.84 1022.56 1022.45 1022.46
Wind_Speed
9 10 14 16 15 11 9 11 11 6 2 7 12 13 14 12 13 13 13 12 13 12 11 12 13 13 14 15 16 17 17 17 13 10 10 9 9 8 6 8 11 13 11 12
7 14 14 14 15 6 6 10 9 5 4 3 6 12 14 14 15 15 16 16 16 15 13 10 10 11 13 16 16 17 17 17 14 11 9 9 9 8 9 9 9 11 12 12
14 7 15 9 9 12 11 11 7 6 5 4 6 15 16 14 15 16 17 17 16 14 13 10 11 11 11 13 13 14 15 16 15 15 8 7 5 4 8 9 9 11 12 12
13 6 11 13 15 14 14 11 9 5 3 7 2 8 5 8 12 11 14 15 15 14 9 9 6 7 10 7 6 9 12 14 14 15 13 12 10 11 8 8 8 8 12 11
7 12 15 17 18 16 6 5 9 6 7 7 9 8 9 3 9 14 14 13 10 6 5 5 3 3 6 3 5 6 10 12 12 13 16 12 13 10 9 7 9 10 9 11
1 5 8 8 4 13 14 11 7 4 5 8 13 10 9 12 11 10 3 7 8 6 4 2 2 0 2 2 4 6 8 11 10 11 15 16 14 12 8 8 8 7 6 7
5 7 4 6 11 7 12 13 5 5 6 7 3 7 15 3 6 3 4 8 8 6 6 4 3 3 2 2 2 3 6 9 10 12 13 14 17 15 12 10 7 6 4 3
15 12 14 10 12 11 20 19 8 8 7 5 3 11 6 6 2 1 5 4 2 6 7 6 4 3 2 1 2 1 2 5 7 8 10 10 11 6 5 5 4 5 5 5
16 13 16 16 5 14 15 15 11 4 3 1 8 10 12 11 9 10 10 7 6 5 6 6 5 4 2 2 3 3 3 2 0 5 6 2 3 4 4 5 4 3 4 3
6 8 9 7 3 10 10 11 6 6 7 7 11 14 13 4 13 11 11 11 8 6 5 5 4 3 2 2 3 4 3 3 2 2 2 3 3 3 4 5 5 5 4 4
8 10 5 7 16 20 8 13 10 8 11 8 8 10 6 10 12 13 10 6 7 6 6 5 4 3 3 2 3 3 4 3 4 4 3 4 4 4 4 5 5 5 5 5
21 7 7 13 4 8 17 21 23 9 11 8 8 12 5 3 1 4 8 8 7 7 6 5 5 5 4 3 3 4 4 5 4 4 4 5 5 4 4 5 5 5 5 3
15 6 4 2 4 8 9 16 17 18 0 10 9 14 4 2 3 2 8 9 7 6 6 5 4 4 4 4 4 4 4 5 5 4 5 5 5 5 5 5 4 3 3 3
14 4 16 18 14 8 10 16 17 16 10 17 12 21 14 6 7 7 7 8 8 8 8 7 7 6 5 5 5 5 5 5 5 5 5 5 5 5 5 5 3 4 3 1
12 10 11 20 8 4 11 16 21 19 22 20 24 23 25 13 11 10 9 9 11 11 10 9 8 7 7 7 6 6 5 5 5 6 5 5 5 5 5 4 4 5 4 4
8 3 12 6 14 11 4 15 23 26 26 25 27 24 15 9 10 13 10 11 12 13 12 11 9 9 8 8 7 6 6 5 5 7 6 5 5 5 5 5 4 4 4 4
11 7 4 12 7 6 7 29 18 20 25 24 25 37 12 12 6 9 12 14 13 12 11 12 11 10 9 8 7 8 8 6 8 7 4 4 4 5 5 4 5 5 4 4
9 7 3 3 5 10 16 11 23 22 21 23 26 19 6 8 10 12 12 11 12 12 12 11 10 10 8 7 7 8 7 7 7 6 5 5 5 5 5 5 5 4 3 2
11 9 5 8 11 11 17 6 10 16 30 26 24 17 15 10 1 9 6 9 11 8 10 9 8 9 10 8 8 8 7 6 7 6 5 4 4 3 4 5 3 2 2 2
5 7 10 7 9 13 5 14 7 7 22 9 19 21 21 8 10 12 11 8 8 11 11 12 11 10 9 8 7 8 7 7 6 4 4 3 4 4 3 2 1 1 1 1
7 8 17 9 7 7 3 7 9 11 4 1 3 7 7 10 12 5 7 8 9 11 13 12 11 9 8 6 7 8 7 7 5 4 3 3 2 1 1 1 1 1 1 2
10 8 7 5 7 14 7 5 11 2 2 3 1 1 5 5 5 7 8 9 11 13 14 12 11 9 6 5 8 9 8 5 4 3 3 3 2 2 2 3 2 2 3 3
5 3 6 7 4 2 12 2 4 2 3 2 2 1 4 7 6 9 10 11 11 12 9 8 10 10 7 5 5 8 5 4 3 3 3 2 1 3 2 3 3 3 1 2
3 2 2 2 4 3 8 1 1 2 3 3 2 2 5 6 8 7 8 8 8 9 9 9 10 9 8 7 8 7 6 3 2 3 3 2 2 4 3 3 2 3 3 3
1 8 5 4 1 1 5 9 3 5 3 2 3 2 5 7 7 8 8 9 8 8 8 8 8 8 8 7 7 5 4 2 3 3 2 3 2 3 3 2 3 2 3 3
5 5 7 4 6 2 3 3 6 7 4 4 4 2 2 6 10 8 9 8 9 9 7 7 7 8 8 7 6 5 4 3 3 3 2 3 3 3 2 3 4 5 8 9
Wind_Direction
189 200 207 204 219 252 243 214 205 199 125 222 229 245 253 246 219 250 247 243 246 240 234 220 213 211 212 214 212 217 208 207 202 196 196 194 194 196 215 218 210 207 202 198
168 217 207 222 222 213 195 214 214 121 149 248 251 258 259 256 247 240 247 245 236 240 236 205 202 204 210 212 217 217 219 212 206 203 203 209 200 203 206 206 216 219 210 203
199 184 216 189 191 206 223 229 207 277 159 225 281 266 240 241 245 238 237 251 257 245 230 220 193 210 209 215 220 218 223 220 214 201 201 205 197 185 202 205 204 210 218 212
226 131 178 193 209 205 220 224 246 179 235 260 260 281 203 213 231 224 237 240 245 243 238 248 248 231 238 239 220 230 228 230 221 196 194 202 203 214 209 203 204 199 209 206
173 169 177 197 202 199 220 163 212 216 243 303 219 268 253 108 254 247 232 231 220 244 230 212 213 251 267 293 257 239 242 231 227 218 197 201 214 219 218 193 188 195 201 205
238 350 207 207 98 195 132 125 132 180 233 250 242 228 252 234 225 245 203 178 163 172 177 161 123 81 238 219 242 235 232 235 225 224 223 208 210 217 211 193 190 189 191 200
160 186 155 163 122 153 180 170 181 217 206 245 16 218 255 263 216 232 214 172 165 161 163 142 134 112 41 45 284 245 214 225 220 221 224 220 227 224 220 210 195 175 140 171
198 196 184 182 206 173 195 190 190 199 206 207 134 233 244 237 293 180 200 221 245 176 163 159 135 102 77 61 4 1 186 213 216 218 222 223 223 234 207 177 159 169 185 190
197 222 157 180 179 161 198 221 240 98 55 239 207 245 272 225 230 221 216 208 227 198 180 163 149 146 132 87 81 47 48 51 306 210 223 233 72 108 133 135 127 131 114 129
176 191 195 165 166 236 213 171 175 218 191 230 241 237 250 180 223 214 217 217 221 184 178 174 163 138 116 81 72 109 93 87 82 75 52 59 73 86 105 111 120 124 112 123
223 222 141 159 210 187 179 194 220 225 226 220 249 245 292 246 211 222 207 177 185 183 184 173 159 150 147 129 106 106 116 97 71 63 74 91 78 76 93 101 107 119 126 139
208 215 174 200 124 279 234 215 205 202 211 238 267 256 111 82 137 234 176 170 157 164 167 166 170 167 155 139 130 107 105 108 112 111 100 98 102 107 104 110 110 116 126 122
177 180 140 224 250 210 227 230 233 231 213 199 208 245 106 111 202 181 185 170 163 176 161 168 170 166 156 141 139 123 111 110 110 116 121 128 134 125 114 112 115 111 120 133
168 134 210 215 227 162 202 224 222 237 227 238 226 250 218 194 217 195 188 176 172 180 177 183 176 165 147 153 141 122 113 106 108 108 114 109 94 92 88 80 73 75 55 79
189 208 213 241 259 306 195 200 212 211 224 221 238 237 248 236 205 208 199 189 190 191 189 187 177 164 159 154 140 125 115 101 104 103 96 85 77 73 78 70 56 57 39 20
205 241 216 251 238 228 261 224 207 212 221 226 239 247 247 267 224 210 200 202 206 204 198 186 172 166 165 159 139 129 118 102 104 91 89 73 69 62 65 68 70 74 59 41
164 139 136 240 156 97 288 227 220 224 224 221 230 242 235 238 193 214 203 205 209 207 195 185 180 173 163 158 152 138 120 115 93 87 72 67 72 73 57 57 66 59 48 37
148 143 129 141 93 215 251 219 222 223 232 227 246 251 230 252 208 213 220 209 211 207 190 177 171 160 141 132 119 111 106 105 93 84 69 49 46 50 47 52 45 38 39 24
200 161 175 199 209 288 272 192 192 204 241 231 243 242 240 227 325 233 203 213 207 174 154 158 151 138 134 134 116 108 101 99 86 76 67 58 56 61 52 51 45 42 28 19
187 202 189 166 218 223 337 175 193 152 261 211 227 235 238 139 234 249 181 153 143 146 143 135 125 123 124 121 112 108 103 92 80 64 61 49 51 51 62 47 58 53 322 287
169 183 199 196 224 272 117 141 147 172 251 356 197 221 179 196 226 90 114 133 130 130 128 128 129 123 109 108 112 108 101 87 75 66 70 66 50 111 91 188 142 276 334 318
176 163 182 179 209 243 145 115 180 186 45 40 86 203 191 126 106 133 141 136 135 132 134 128 119 111 101 106 120 116 108 110 98 103 89 68 27 35 23 9 8 360 351 318
172 208 165 207 184 57 180 67 116 138 109 100 21 72 128 124 149 150 151 148 146 140 124 116 116 109 90 71 98 116 103 88 85 94 85 62 24 29 16 6 357 343 328 309
189 191 214 203 150 143 207 79 307 117 81 77 57 147 171 156 158 146 147 138 128 128 126 120 122 123 115 91 79 95 99 81 120 113 81 70 42 5 20 346 352 332 322 318
40 149 153 268 188 160 234 232 178 155 154 158 108 179 190 143 148 149 144 141 135 124 119 126 125 122 121 117 105 91 91 65 96 91 70 50 32 30 340 328 299 293 282 287
190 183 190 228 168 128 76 113 166 173 189 195 187 186 187 161 160 151 147 141 136 135 131 127 125 130 137 128 121 93 55 47 44 82 54 45 359 359 341 326 320 295 266 280